Wetbulb
58.82 58.50 59.16 59.36 59.69 60.18 60.72 61.05 61.10 60.88 60.81 60.88 61.03 61.49 61.56 61.48 60.70 56.43 50.98 56.90 57.94 63.10 59.56 53.68 52.43 51.60 51.16 50.09 50.33 47.87 38.79 36.60 40.14 41.19 41.73 43.75 42.87 44.42 44.89 43.40 43.85 46.66 43.82 44.62 45.85
57.78 57.91 58.32 58.53 58.79 59.22 59.73 60.14 60.34 60.43 60.68 60.63 60.56 60.71 61.30 60.71 55.88 52.51 59.58 65.70 64.11 63.00 53.86 50.31 48.78 49.57 46.69 48.13 48.21 44.17 38.08 40.84 44.31 42.73 41.69 43.68 43.25 44.43 42.08 41.58 42.64 43.36 43.26 44.81 44.87
57.67 57.61 57.61 57.69 57.97 58.48 58.96 59.35 59.74 60.26 60.52 60.62 60.39 60.64 60.63 59.22 52.36 51.39 63.93 64.99 64.24 61.45 54.09 51.49 50.83 50.11 45.46 46.79 46.03 44.20 40.58 44.53 45.59 45.43 44.84 43.77 42.58 44.91 42.69 41.40 42.71 43.97 42.93 42.92 41.60
57.50 57.44 57.27 57.08 57.30 57.75 58.22 58.54 58.72 59.61 59.82 60.26 60.33 60.49 60.16 56.01 38.93 53.14 62.93 63.25 62.74 55.67 52.74 49.73 48.70 46.48 44.32 43.92 47.75 42.55 45.86 46.70 47.47 46.13 44.76 42.86 44.52 43.12 43.11 45.28 47.10 45.95 46.08 43.54 42.00
57.51 57.48 57.11 56.64 56.47 57.04 57.58 57.89 57.96 58.41 59.34 59.60 60.24 60.34 56.21 48.33 49.03 56.25 60.85 60.13 55.32 54.17 49.86 48.63 46.56 46.16 43.50 44.53 45.02 43.84 44.40 46.87 46.83 45.94 44.75 45.13 43.79 42.65 43.25 44.82 46.32 46.75 45.18 43.24 42.86
57.32 56.92 56.74 56.75 56.70 56.67 56.88 57.12 57.53 58.32 58.55 58.97 59.76 59.86 50.04 43.47 52.89 55.20 52.45 53.12 52.49 50.73 48.85 48.67 47.44 47.84 45.35 44.92 42.63 43.32 44.30 44.68 45.24 45.32 44.76 43.56 41.53 42.75 43.52 45.23 45.42 45.68 44.44 43.08 43.49
57.11 56.51 56.31 56.46 56.72 56.77 56.81 56.91 57.27 58.03 58.01 58.85 59.61 57.67 50.45 46.39 52.98 52.33 51.81 50.45 50.07 49.89 47.79 48.72 48.96 46.73 44.98 44.06 45.61 44.07 41.82 42.11 43.25 44.11 43.26 43.31 40.56 40.86 46.46 44.11 44.46 44.07 44.03 43.23 43.80
56.62 56.00 56.09 56.35 56.66 56.73 57.00 57.35 57.42 57.84 58.44 59.20 59.92 54.36 44.71 53.00 50.32 51.40 50.63 49.23 49.83 49.63 49.56 49.73 49.67 47.90 45.21 45.47 43.42 38.88 37.29 34.92 40.68 42.67 43.44 43.22 37.42 42.59 45.80 42.74 43.65 43.29 42.24 42.69 44.22
56.30 55.85 56.20 56.57 56.59 56.58 56.80 56.93 57.02 57.75 58.88 59.24 53.27 50.30 45.52 54.84 50.77 51.85 50.66 48.78 48.84 49.16 49.04 50.98 49.03 44.88 43.87 38.63 35.38 35.68 31.86 34.27 38.82 43.32 41.34 40.08 37.60 42.26 43.70 42.03 42.65 41.31 42.24 42.94 42.93
56.24 56.04 56.37 56.70 56.64 56.60 56.88 57.16 56.93 56.43 55.95 56.92 55.20 45.32 48.36 46.97 50.67 50.50 49.13 49.93 47.39 47.63 46.49 45.34 43.14 39.14 38.36 35.36 30.72 31.73 32.48 35.39 35.99 39.54 38.46 36.97 38.14 42.93 42.50 41.28 41.61 40.94 41.22 42.19 44.10
56.54 56.43 56.68 56.72 56.93 57.40 55.19 49.59 46.08 44.51 47.54 43.85 44.81 44.96 47.90 49.87 50.89 48.45 48.75 47.79 47.62 44.71 38.96 41.81 36.09 34.82 38.76 39.59 39.53 36.83 35.71 34.13 37.99 41.61 39.08 38.39 39.58 41.45 43.95 40.32 41.97 43.68 43.85 42.90 43.68
57.13 56.83 56.76 56.85 57.02 57.09 51.91 46.11 45.36 45.25 39.57 46.52 45.84 47.14 49.44 49.76 45.51 47.61 48.67 43.36 42.51 38.35 39.58 37.95 35.18 40.51 41.22 40.45 39.41 37.94 36.77 36.71 39.69 41.47 38.65 37.46 37.94 40.63 42.33 43.49 41.89 43.78 44.31 45.03 45.56
57.31 56.79 56.59 56.54 56.50 52.83 48.68 46.88 50.44 48.50 40.31 43.98 45.45 44.47 45.33 48.96 44.97 45.92 45.79 42.70 39.65 37.40 38.25 37.42 38.92 43.08 41.59 39.40 38.11 38.34 36.10 36.83 36.06 38.04 36.87 35.09 33.22 36.27 40.61 43.09 43.92 44.31 45.37 45.85 45.74
57.29 56.81 56.54 56.18 51.89 49.44 46.68 49.24 49.47 48.09 30.80 36.68 41.33 44.69 46.04 46.14 41.08 46.10 46.17 43.50 39.72 38.12 37.63 37.45 42.02 40.72 38.33 37.96 39.80 35.77 38.95 38.28 36.60 32.90 31.50 34.47 29.86 33.69 37.62 39.59 41.30 43.33 43.91 44.36 44.62
57.19 56.94 56.88 55.81 48.72 47.42 49.33 49.71 47.85 44.10 23.14 39.21 40.08 47.44 45.93 40.86 40.54 41.53 43.38 41.83 37.37 37.54 37.31 36.66 36.14 36.32 37.05 39.02 39.12 38.01 37.97 37.16 34.33 31.34 30.28 31.47 28.40 31.61 37.15 35.85 38.62 41.97 43.21 45.20 43.85
57.27 57.04 56.34 53.61 49.94 50.61 51.24 49.33 44.60 31.25 22.43 35.96 40.25 39.63 39.38 40.38 39.72 40.03 40.22 41.74 40.70 37.65 37.75 37.40 38.51 38.51 38.36 37.24 38.41 38.15 35.46 33.54 31.36 29.57 25.72 30.22 31.32 32.77 31.95 38.00 38.03 41.95 42.14 43.52 41.74
57.31 56.89 54.82 55.05 50.50 51.88 51.43 46.40 33.08 24.25 37.11 35.78 36.49 39.04 37.61 37.34 37.88 37.06 35.65 33.89 32.95 29.42 29.09 34.10 36.43 39.32 39.36 35.24 35.56 36.09 33.71 25.21 22.51 21.27 24.44 32.72 29.36 35.58 37.27 38.49 40.46 41.77 42.79 43.50 40.72
56.31 56.69 54.83 55.35 53.99 52.00 49.39 39.60 30.26 36.19 35.72 40.90 38.70 37.89 35.88 38.01 37.86 36.12 33.71 31.38 34.23 32.14 30.46 29.67 30.90 35.06 38.05 38.68 35.23 33.55 35.72 27.54 19.81 20.55 28.37 28.10 25.09 32.65 40.39 42.99 40.75 41.08 42.28 39.68 39.56
55.52 55.11 53.50 54.55 53.99 51.95 43.81 32.75 36.53 35.71 40.71 39.15 39.70 36.80 33.56 36.51 37.39 34.38 32.25 32.48 35.25 36.54 32.53 30.47 30.95 34.81 34.91 35.84 38.93 32.84 30.12 36.46 29.58 23.14 20.72 31.99 32.58 36.54 37.67 38.33 38.93 39.77 38.69 38.54 38.65
52.01 52.41 51.70 54.66 53.76 48.84 39.50 39.41 38.02 42.27 41.72 40.31 36.69 38.68 34.28 35.02 32.61 35.74 34.10 36.59 36.48 37.97 40.98 36.15 31.59 33.61 32.45 33.65 34.37 32.78 34.27 28.66 29.39 21.73 18.12 28.59 26.75 32.82 34.25 39.18 40.48 37.72 37.00 37.80 38.02
50.26 46.57 49.92 54.17 52.71 44.76 34.41 36.46 40.97 42.92 42.28 39.06 38.16 36.67 35.51 33.41 34.74 34.52 35.27 37.23 37.64 37.82 38.54 35.33 34.47 32.42 30.66 30.00 30.98 28.89 29.26 30.02 30.80 29.01 26.35 25.03 29.97 35.24 35.61 37.18 38.82 38.62 37.84 37.33 38.05
45.61 38.89 52.02 52.84 42.40 41.74 39.16 39.93 43.12 42.05 42.51 41.23 40.51 38.69 38.68 39.48 37.31 36.90 35.97 38.29 40.64 40.00 35.00 36.85 34.09 28.81 31.95 34.15 33.84 34.27 34.28 35.22 29.57 28.40 25.07 27.37 30.40 38.28 39.81 38.96 38.29 36.76 38.64 39.02 39.45
43.22 42.40 51.17 50.65 37.83 38.85 39.51 40.22 42.42 41.34 41.27 40.53 39.54 40.54 41.56 38.03 34.64 36.66 37.96 42.36 42.84 39.61 36.77 37.77 31.71 27.09 27.88 32.04 29.17 30.57 31.59 34.85 34.04 30.96 28.67 25.39 29.34 39.88 41.44 38.79 38.65 37.55 38.01 39.08 39.56
42.40 36.11 43.35 44.97 44.68 40.22 38.55 38.45 38.14 42.39 40.92 41.81 40.86 41.92 39.03 37.03 39.23 36.23 35.55 39.04 40.31 41.01 42.72 41.47 33.52 31.46 28.65 31.53 33.54 30.40 32.63 32.94 32.11 27.90 28.60 29.46 32.06 37.33 39.76 40.69 42.32 43.02 40.53 40.64 39.92
40.51 36.28 39.41 31.65 38.07 39.24 39.78 38.20 36.37 35.51 40.80 41.77 39.03 39.01 38.18 35.22 36.27 35.75 38.10 38.52 39.64 40.72 39.52 38.58 30.60 32.53 33.76 35.37 34.98 34.16 33.55 33.80 32.05 32.39 27.73 29.94 30.64 35.52 38.57 39.78 41.24 42.56 42.41 40.87 40.59
35.01 34.29 36.70 35.35 36.13 35.98 36.14 35.11 34.66 36.05 37.09 35.84 35.52 37.92 37.55 34.12 35.81 34.64 37.20 37.06 36.25 33.85 36.49 37.06 31.35 33.45 30.86 33.08 33.29 31.58 33.39 33.83 33.18 32.90 32.90 33.70 32.68 39.37 40.76 41.78 41.23 41.70 41.89 41.09 41.79
36.47 39.06 35.13 30.85 29.08 28.67 29.57 32.38 33.41 33.68 34.70 37.65 33.57 32.24 31.32 33.81 37.68 37.19 36.40 35.08 36.40 37.20 35.95 35.11 31.65 30.92 27.39 31.48 31.39 27.31 31.64 32.73 33.61 35.26 34.32 29.28 34.56 39.23 38.78 39.91 40.71 41.69 42.20 41.64 42.14
MSLP
1020.95 1020.77 1020.44 1020.18 1019.94 1019.68 1019.29 1018.86 1018.49 1018.21 1017.93 1017.59 1017.23 1016.93 1016.63 1016.39 1016.17 1016.05 1015.23 1013.72 1013.79 1014.06 1014.46 1014.70 1014.92 1014.95 1015.08 1015.36 1015.25 1015.47 1016.16 1015.66 1014.40 1013.16 1012.44 1012.26 1012.42 1012.58 1012.84 1013.25 1013.58 1013.85 1014.34 1014.71 1015.34
1021.12 1020.93 1020.63 1020.37 1020.10 1019.78 1019.46 1019.07 1018.69 1018.28 1017.93 1017.59 1017.20 1016.82 1016.52 1016.27 1015.99 1015.16 1013.39 1013.20 1013.51 1013.86 1014.26 1014.51 1014.73 1014.95 1015.25 1015.27 1015.43 1015.81 1016.07 1014.82 1013.40 1012.84 1012.55 1012.44 1012.52 1012.78 1013.17 1013.32 1013.66 1014.03 1014.68 1015.21 1015.81
1021.14 1020.96 1020.73 1020.46 1020.20 1019.86 1019.48 1019.08 1018.65 1018.23 1017.82 1017.47 1017.13 1016.76 1016.41 1016.20 1015.85 1013.90 1013.35 1013.29 1013.47 1013.75 1013.92 1014.06 1014.16 1014.61 1015.11 1014.99 1015.18 1015.22 1015.06 1014.03 1013.01 1012.60 1012.53 1012.56 1012.72 1012.72 1013.15 1013.30 1013.19 1013.32 1014.33 1015.29 1015.81
1021.11 1020.93 1020.71 1020.46 1020.21 1019.81 1019.40 1018.92 1018.45 1018.07 1017.70 1017.37 1017.01 1016.60 1016.37 1016.17 1015.35 1013.43 1013.45 1013.60 1013.64 1013.84 1014.04 1013.97 1014.18 1014.51 1014.77 1014.73 1014.23 1014.58 1013.90 1013.60 1013.02 1012.64 1012.57 1012.81 1012.82 1012.73 1012.69 1011.95 1012.07 1012.37 1013.05 1014.33 1015.08
1020.87 1020.73 1020.51 1020.30 1020.00 1019.71 1019.32 1018.82 1018.24 1017.73 1017.45 1017.28 1017.04 1016.68 1016.34 1016.09 1014.38 1013.28 1013.43 1013.68 1013.86 1014.03 1014.12 1014.16 1014.33 1014.40 1014.44 1014.12 1014.01 1013.94 1013.55 1013.18 1012.86 1012.79 1012.77 1012.87 1012.95 1013.20 1011.96 1011.67 1011.87 1012.09 1012.86 1013.73 1014.24
1020.82 1020.59 1020.30 1020.05 1019.74 1019.35 1018.92 1018.49 1017.99 1017.43 1017.02 1016.82 1016.80 1016.84 1016.38 1015.40 1012.91 1013.01 1013.38 1013.79 1013.74 1013.88 1013.85 1013.93 1013.94 1013.97 1014.29 1014.02 1013.96 1013.47 1013.41 1013.17 1012.86 1012.88 1012.89 1013.10 1012.96 1013.24 1010.89 1011.05 1011.35 1011.84 1012.13 1012.69 1013.20
1020.72 1020.47 1020.15 1019.84 1019.44 1018.97 1018.41 1017.85 1017.37 1016.91 1016.66 1016.44 1016.36 1016.55 1015.81 1013.34 1012.50 1013.00 1013.38 1013.51 1013.36 1013.45 1013.60 1013.47 1013.45 1013.81 1014.00 1013.87 1013.51 1013.54 1013.72 1013.24 1012.36 1012.30 1012.85 1013.08 1012.86 1012.16 1009.92 1010.76 1010.99 1011.22 1011.47 1011.77 1011.85
1020.67 1020.39 1019.98 1019.62 1019.19 1018.72 1018.00 1017.20 1016.65 1016.39 1016.09 1015.87 1016.00 1016.21 1014.83 1012.89 1012.63 1012.80 1013.12 1013.23 1013.23 1013.27 1013.47 1013.45 1013.39 1013.80 1014.04 1013.84 1013.82 1014.04 1014.16 1013.70 1011.57 1011.94 1012.53 1012.83 1011.44 1010.09 1009.73 1010.51 1010.58 1010.56 1010.87 1011.00 1010.87
1020.49 1020.26 1019.88 1019.31 1018.89 1018.31 1017.58 1016.49 1015.87 1015.67 1015.59 1015.54 1015.89 1015.80 1014.31 1012.96 1013.06 1012.59 1012.42 1012.78 1013.14 1013.43 1013.47 1013.54 1013.75 1014.16 1014.25 1014.54 1014.96 1014.43 1013.98 1013.39 1012.30 1011.49 1012.13 1012.63 1011.34 1009.78 1009.30 1010.12 1009.94 1010.03 1009.91 1009.96 1009.76
1020.32 1020.11 1019.83 1019.18 1018.61 1017.90 1017.04 1015.60 1015.01 1015.29 1015.36 1015.38 1015.25 1015.71 1013.67 1012.96 1012.78 1012.84 1012.92 1012.96 1013.15 1013.46 1014.02 1014.23 1014.39 1014.51 1014.70 1014.82 1014.62 1013.68 1013.85 1012.96 1012.36 1011.68 1011.89 1012.10 1011.08 1009.53 1009.48 1009.73 1009.59 1009.38 1009.01 1008.92 1008.68
1020.10 1019.87 1019.59 1019.05 1018.44 1017.74 1017.01 1015.68 1015.58 1015.86 1015.47 1014.84 1014.25 1013.51 1012.86 1012.76 1012.56 1012.83 1012.85 1013.27 1013.52 1013.91 1014.03 1014.09 1014.64 1014.22 1012.96 1013.32 1013.11 1013.31 1012.99 1012.40 1011.54 1011.27 1011.52 1011.20 1010.46 1009.68 1008.86 1009.15 1008.95 1008.48 1007.97 1007.74 1007.29
1019.78 1019.74 1019.49 1019.04 1018.59 1017.72 1017.34 1017.51 1018.38 1018.65 1016.89 1014.46 1013.78 1013.21 1012.20 1012.14 1012.63 1012.67 1012.68 1013.39 1013.75 1013.91 1014.05 1014.19 1013.64 1012.81 1012.81 1013.11 1013.23 1013.17 1012.93 1012.40 1011.40 1010.82 1011.11 1010.55 1009.68 1009.26 1008.70 1007.65 1007.58 1007.27 1006.64 1006.25 1005.84
1019.32 1019.51 1019.42 1018.90 1018.46 1017.99 1017.87 1018.15 1018.17 1018.29 1017.94 1014.69 1012.39 1011.85 1011.55 1011.85 1012.27 1012.17 1012.76 1013.00 1013.39 1013.88 1013.48 1012.82 1012.23 1012.12 1012.58 1012.89 1013.28 1012.05 1012.29 1011.87 1011.71 1011.41 1010.81 1010.56 1008.97 1008.68 1007.53 1006.58 1006.22 1005.64 1005.19 1004.90 1004.49
1018.95 1019.18 1019.13 1018.94 1018.78 1018.58 1018.21 1018.06 1017.79 1018.24 1017.46 1013.94 1012.31 1011.73 1011.74 1011.78 1012.46 1012.29 1012.03 1012.58 1013.15 1012.64 1013.21 1012.72 1011.74 1011.72 1012.30 1012.65 1012.54 1011.04 1011.51 1011.43 1011.42 1012.03 1011.32 1010.98 1007.14 1007.45 1006.72 1006.04 1005.45 1004.39 1003.91 1003.56 1003.10
1018.52 1018.76 1018.96 1019.05 1019.34 1018.99 1018.36 1018.18 1017.96 1018.07 1016.63 1012.97 1012.17 1012.06 1011.99 1012.40 1012.84 1012.98 1012.98 1012.78 1012.74 1012.83 1013.08 1010.98 1011.07 1011.36 1011.54 1010.92 1011.70 1010.41 1011.40 1011.82 1012.22 1012.19 1011.61 1011.12 1010.92 1006.02 1005.74 1005.56 1004.55 1003.47 1002.87 1002.10 1002.32
1018.10 1018.08 1018.57 1019.05 1019.27 1018.57 1018.12 1018.28 1018.22 1017.90 1015.38 1012.76 1012.30 1012.35 1012.61 1012.76 1012.97 1013.16 1013.39 1013.39 1013.27 1013.11 1012.48 1011.44 1011.34 1011.33 1010.95 1011.10 1011.06 1011.08 1011.70 1012.38 1012.68 1012.94 1011.72 1010.89 1010.44 1001.84 1005.03 1004.11 1003.34 1002.76 1002.07 1001.64 1001.50
1017.76 1018.05 1017.96 1017.88 1018.36 1018.10 1018.30 1019.18 1018.74 1016.68 1013.66 1012.73 1012.40 1012.69 1012.94 1013.04 1013.13 1013.20 1013.51 1013.85 1013.75 1013.76 1012.54 1011.29 1010.34 1009.93 1010.47 1011.52 1011.71 1011.56 1012.13 1013.21 1013.54 1013.85 1010.72 1008.85 1008.63 1003.17 1003.30 1002.65 1002.04 1001.63 1001.15 1000.64 1001.11
1017.51 1017.60 1017.48 1017.47 1017.82 1018.25 1018.31 1020.25 1018.37 1015.20 1013.79 1011.91 1012.13 1012.51 1012.48 1012.48 1012.61 1013.07 1013.43 1013.70 1013.19 1013.35 1013.01 1012.09 1010.25 1009.82 1009.50 1009.96 1010.21 1010.67 1010.81 1011.87 1012.08 1012.02 1010.13 1008.63 1006.32 1002.90 1001.27 1000.69 1000.69 1000.45 1000.20 1000.28 1001.04
1016.87 1017.25 1017.51 1017.16 1017.53 1017.87 1018.86 1019.24 1016.04 1014.60 1013.62 1012.97 1012.69 1012.49 1012.21 1011.77 1012.01 1012.63 1012.75 1012.25 1012.06 1012.07 1012.33 1011.48 1010.29 1009.58 1009.43 1009.51 1009.89 1010.09 1010.48 1009.45 1010.61 1010.27 1009.94 1006.02 1003.80 1001.97 1000.97 1000.65 1000.42 1000.00 999.95 1000.89 1001.18
1017.21 1017.09 1016.39 1016.16 1017.00 1017.65 1018.00 1015.56 1014.30 1013.65 1013.10 1013.12 1012.71 1012.28 1012.05 1012.05 1012.55 1012.47 1011.76 1010.65 1010.73 1010.37 1009.89 1009.67 1009.88 1009.43 1009.81 1010.00 1009.86 1009.71 1009.99 1010.53 1010.75 1009.96 1008.32 1005.27 1003.53 1001.38 1000.54 1000.35 999.45 999.83 1000.19 1000.70 1001.15
1017.20 1016.72 1015.25 1015.54 1016.52 1017.61 1016.56 1014.92 1013.86 1013.22 1013.33 1013.27 1012.28 1012.01 1011.39 1011.50 1011.61 1011.68 1010.99 1009.90 1009.92 1009.58 1009.53 1009.98 1010.12 1010.27 1010.58 1009.58 1009.42 1009.94 1009.68 1009.63 1009.52 1008.50 1006.83 1005.08 1001.82 1000.03 999.42 999.19 999.38 998.99 998.96 1000.10 1000.89
1017.14 1016.78 1015.06 1015.72 1016.37 1015.14 1014.54 1013.95 1013.37 1012.62 1012.71 1012.63 1012.09 1011.61 1011.28 1010.99 1010.64 1010.43 1009.96 1009.56 1008.73 1008.89 1009.55 1010.31 1010.53 1011.04 1010.29 1009.03 1008.63 1008.65 1007.76 1007.92 1008.24 1006.80 1006.22 1004.69 1002.12 999.61 999.00 998.47 998.99 999.16 999.03 999.75 999.98
1016.65 1015.78 1015.19 1014.81 1014.36 1014.05 1013.66 1013.44 1013.03 1012.27 1012.25 1011.84 1011.47 1011.16 1011.29 1010.80 1009.93 1009.33 1008.76 1008.13 1008.87 1009.10 1009.28 1009.81 1010.60 1010.98 1010.46 1009.41 1008.59 1008.22 1007.49 1006.86 1006.75 1006.66 1005.68 1004.61 1001.77 999.54 999.37 999.12 998.65 999.13 999.28 999.36 999.58
1017.29 1015.74 1015.00 1014.21 1013.66 1013.53 1013.36 1012.85 1012.26 1012.07 1011.74 1011.31 1011.16 1011.16 1010.65 1010.02 1009.48 1008.89 1008.10 1008.10 1008.41 1008.88 1009.41 1010.01 1009.84 1009.63 1008.35 1007.00 1006.67 1007.03 1007.08 1006.10 1006.61 1006.50 1004.70 1003.65 1001.14 999.18 998.55 998.29 998.26 998.64 998.82 998.89 999.11
1017.44 1015.60 1014.90 1014.30 1013.74 1013.36 1013.37 1012.91 1012.27 1012.27 1012.14 1011.85 1010.78 1010.82 1010.46 1009.56 1009.21 1008.61 1008.52 1008.13 1008.47 1008.42 1009.00 1009.39 1008.99 1008.81 1007.62 1007.18 1006.60 1006.48 1005.78 1005.37 1005.45 1005.54 1005.40 1002.01 1002.59 999.81 996.39 997.72 997.26 997.66 997.44 997.83 998.27
1017.41 1016.74 1016.08 1015.57 1014.78 1014.38 1013.78 1013.34 1013.15 1012.82 1012.79 1011.99 1011.75 1011.56 1011.22 1010.95 1010.30 1009.00 1008.76 1008.53 1007.56 1007.28 1008.15 1008.60 1007.50 1007.59 1006.32 1005.76 1005.65 1005.04 1004.09 1003.84 1003.85 1003.16 1002.41 1001.71 1000.79 999.37 997.88 997.14 996.92 995.63 996.30 997.57 997.50
1018.04 1017.62 1017.61 1016.27 1015.43 1015.32 1014.59 1014.18 1014.03 1014.17 1013.46 1012.89 1013.15 1012.79 1011.94 1011.64 1011.43 1010.89 1010.88 1010.43 1009.58 1008.52 1007.81 1007.27 1006.68 1006.18 1004.44 1005.06 1004.61 1004.02 1002.90 1001.58 1001.15 1000.78 1000.82 1000.88 999.07 997.88 997.48 996.95 994.91 994.68 996.47 996.42 996.29
Wind_Speed
17 18 18 19 19 20 19 19 18 16 15 14 14 12 10 8 7 2 6 8 6 13 8 5 3 3 1 2 1 3 3 4 6 3 3 4 4 3 3 2 2 6 2 2 14
16 18 18 19 19 19 19 19 18 18 17 15 15 13 10 8 2 8 8 11 14 11 6 7 4 5 0 3 2 4 3 7 5 3 2 3 4 7 2 3 4 3 3 7 14
15 15 16 18 19 19 19 19 19 17 16 15 15 13 10 6 3 7 2 10 11 8 2 3 2 6 3 3 5 5 7 4 4 2 3 2 2 6 6 8 8 13 9 12 9
12 12 14 16 17 18 19 20 20 18 18 16 15 12 10 1 6 2 7 8 9 5 1 3 3 4 4 5 7 5 9 8 6 2 1 3 5 4 9 12 6 11 13 16 16
9 9 11 13 15 18 19 19 19 18 17 17 15 11 2 1 11 5 8 6 5 5 5 5 5 5 5 5 3 8 5 7 6 6 5 2 10 7 13 10 11 9 11 17 16
9 9 11 12 14 17 18 20 20 18 17 17 14 7 2 6 2 9 8 5 4 5 5 6 6 6 5 6 4 3 3 7 6 6 6 6 5 4 10 9 15 11 11 13 18
8 9 11 12 14 17 19 21 21 19 17 16 8 4 4 15 6 8 9 5 3 4 3 5 4 4 1 5 3 3 8 9 10 9 9 6 11 15 25 5 9 12 11 11 18
9 10 11 13 15 17 20 22 22 20 17 9 3 3 9 1 4 7 5 1 1 1 2 2 4 2 3 3 4 3 2 4 4 7 6 10 18 10 17 10 17 13 10 10 15
9 10 12 14 16 17 20 25 24 18 7 1 4 3 9 1 3 6 7 6 5 2 2 1 4 6 1 4 4 4 7 9 11 11 8 8 11 9 7 10 14 11 12 12 11
9 10 12 15 16 20 23 26 12 5 2 2 3 3 5 3 1 1 1 6 3 6 2 2 2 3 1 5 11 9 7 7 9 3 4 7 16 19 9 4 11 10 10 11 15
10 10 11 16 18 21 14 7 6 4 2 7 6 6 5 4 1 3 3 3 3 2 8 6 6 12 23 16 11 5 6 7 10 8 7 14 17 21 18 8 16 17 15 14 17
10 10 10 15 17 21 3 5 3 2 9 9 15 11 7 7 5 6 8 8 7 8 4 3 12 18 7 8 12 12 18 19 13 15 10 10 19 14 13 17 13 18 18 19 19
9 9 9 14 15 6 2 3 2 2 4 10 8 6 6 10 8 9 12 5 7 6 10 19 8 17 14 9 8 17 14 18 15 7 6 8 12 10 13 16 14 15 18 17 22
9 9 7 13 3 5 2 3 2 1 3 8 4 2 3 5 5 3 8 8 5 14 9 12 15 14 8 8 15 23 9 12 9 2 15 7 22 8 8 16 14 19 16 20 20
10 8 3 2 4 4 5 5 5 3 9 5 3 3 2 5 2 4 2 3 4 2 5 11 3 6 13 23 10 19 4 9 3 5 6 6 8 4 9 10 12 15 16 21 13
10 9 7 2 2 5 4 6 2 6 12 4 2 2 4 1 1 2 3 3 2 3 6 13 2 4 8 1 5 3 2 2 3 2 13 10 11 10 8 15 8 16 15 18 11
9 10 10 3 3 2 2 6 3 7 6 3 3 4 2 5 4 5 5 4 6 1 5 5 14 11 6 3 1 3 5 4 4 1 14 12 12 22 8 8 15 17 18 19 8
6 7 7 5 6 2 4 6 7 2 7 4 4 5 7 8 6 7 5 5 7 1 4 3 14 11 8 20 10 10 15 9 10 7 14 4 11 9 15 16 11 12 15 8 9
4 1 3 5 7 5 4 5 9 7 6 4 9 5 4 5 6 5 7 6 9 18 11 5 9 2 1 0 10 6 8 12 3 2 3 13 15 10 6 10 10 16 10 8 9
2 2 5 7 12 5 2 18 10 8 1 3 13 8 14 7 1 5 8 5 6 15 20 8 11 4 1 2 3 3 0 2 4 5 8 16 8 16 6 17 17 10 11 10 8
0 3 3 13 9 4 6 9 8 7 5 8 12 13 11 6 9 8 7 10 5 4 10 3 6 7 3 9 9 2 4 5 3 5 14 17 17 8 8 7 11 12 10 9 9
3 5 7 10 5 4 12 8 7 14 7 13 9 16 18 14 15 15 20 17 9 7 5 3 1 3 12 7 4 6 12 17 14 19 4 5 16 4 12 9 5 3 5 6 8
3 4 6 4 10 10 3 10 17 20 18 8 11 13 18 23 21 19 21 22 22 9 8 6 4 7 8 11 2 7 7 10 7 2 17 14 23 5 13 11 8 8 8 7 6
3 4 4 4 9 17 18 21 21 16 22 26 24 19 18 20 20 15 17 10 7 12 9 10 11 14 19 20 4 4 11 12 10 11 18 22 30 36 32 30 26 22 12 11 10
3 4 2 4 9 16 13 5 14 8 9 12 8 23 27 27 25 27 27 25 17 10 7 12 12 19 27 30 27 31 32 31 26 21 14 29 20 30 38 23 24 20 17 11 10
3 3 3 5 8 7 4 11 15 17 13 13 20 16 11 17 27 28 25 22 23 5 24 10 17 16 21 27 31 34 34 33 33 37 30 34 35 35 37 35 30 33 25 17 19
3 2 2 6 2 4 7 6 7 15 9 3 16 17 16 19 11 16 16 17 17 16 18 17 10 13 25 23 25 22 34 38 36 28 21 26 35 37 35 32 36 32 17 17 20
Wind_Direction
18 15 10 6 4 0 358 356 355 355 354 350 349 344 336 330 308 215 237 216 169 162 162 148 190 221 333 279 203 67 47 254 256 242 215 185 160 325 163 143 228 206 173 238 136
14 10 5 2 359 355 352 349 347 344 343 343 341 341 337 331 234 246 235 134 143 153 142 164 183 180 223 225 193 118 158 235 221 311 322 211 178 182 200 217 233 210 46 117 140
7 6 1 359 355 351 347 344 339 336 333 333 334 333 329 327 320 247 167 145 151 159 165 189 190 167 196 176 211 198 214 220 295 354 27 311 269 188 178 246 211 209 177 171 166
355 355 356 355 348 345 342 338 334 329 325 324 325 324 325 233 278 175 152 153 150 160 205 182 189 164 211 216 207 221 237 243 273 241 172 255 297 256 196 226 213 226 189 173 178
339 342 346 345 342 339 335 329 325 321 320 320 320 316 311 245 250 151 150 157 142 147 196 188 180 185 213 225 293 216 240 254 249 225 231 269 254 246 263 250 248 236 155 188 198
337 336 336 333 332 332 328 323 317 311 311 315 317 305 194 239 167 152 155 152 192 175 198 189 204 214 257 246 207 267 267 270 266 249 243 193 260 158 260 230 245 238 230 194 202
326 327 325 323 323 323 320 316 311 303 303 308 303 241 237 236 162 156 152 194 211 187 207 226 187 169 316 280 296 295 308 312 248 231 222 136 282 225 250 229 247 240 233 206 215
322 322 317 313 312 314 313 308 304 302 300 293 242 219 248 4 140 143 174 168 255 233 195 310 107 164 209 285 331 256 208 280 253 168 204 135 264 233 248 193 236 242 238 227 224
315 317 316 312 311 310 310 304 301 293 266 164 130 170 262 11 203 207 157 174 153 143 76 104 106 192 236 128 340 242 237 218 295 188 150 178 251 261 261 193 239 229 235 233 236
307 312 314 311 312 313 314 302 290 324 190 194 255 21 278 251 188 120 194 150 147 129 78 170 164 183 237 129 223 213 224 246 230 215 158 198 249 267 256 269 243 238 240 240 243
295 304 314 314 319 319 333 350 11 14 10 208 202 214 170 192 136 186 200 114 92 148 188 207 148 208 224 209 232 231 261 239 266 250 178 228 235 246 260 217 244 255 258 248 239
290 296 309 311 316 317 335 46 83 218 303 270 255 242 226 174 203 230 137 162 169 211 189 252 220 227 238 204 230 244 259 268 278 264 200 246 245 243 255 252 221 236 245 247 252
270 283 302 307 318 335 340 95 287 2 244 279 226 221 227 159 222 224 153 174 189 201 214 225 227 220 224 231 263 243 243 259 264 301 248 298 265 231 248 248 249 238 243 255 247
259 273 302 310 22 323 323 321 350 55 294 266 227 255 29 124 268 345 189 168 221 222 202 248 241 237 202 222 208 264 224 243 242 231 268 148 290 233 242 248 246 251 245 241 248
243 253 257 46 283 328 287 332 317 90 300 250 226 330 42 154 37 350 334 345 244 230 136 231 234 220 234 234 189 257 222 238 239 239 314 173 285 222 186 241 251 248 245 253 240
257 218 155 167 196 254 345 331 25 51 254 281 101 131 89 27 32 2 51 23 262 292 253 247 140 231 214 123 188 123 75 358 31 80 265 172 200 250 191 218 244 246 249 256 238
258 249 158 185 203 113 40 352 329 200 300 228 228 157 187 203 213 174 157 179 198 252 241 300 234 212 152 179 225 154 98 298 318 349 250 186 212 254 292 249 219 231 236 239 177
320 264 210 186 148 130 80 70 229 191 244 334 38 181 194 172 231 187 162 252 238 196 322 243 293 159 185 207 193 195 199 181 204 227 277 133 246 255 214 230 229 237 228 194 183
326 173 165 208 163 150 102 182 231 170 218 294 333 287 255 247 218 141 203 222 213 183 200 230 257 300 90 277 167 188 184 228 303 126 32 262 270 291 241 248 249 239 236 206 206
341 232 192 167 143 119 186 234 222 195 61 68 261 204 263 250 308 212 174 216 237 186 208 230 257 196 168 238 267 159 102 111 238 208 245 261 259 264 272 269 258 265 213 219 206
244 264 241 144 137 197 214 227 262 206 187 190 236 249 245 263 207 252 221 294 256 269 213 323 267 257 157 204 181 89 248 234 292 191 249 263 271 217 241 247 257 245 218 195 212
206 237 150 153 205 191 227 228 231 248 200 235 247 253 253 252 252 250 247 233 209 169 185 155 260 295 249 297 273 254 228 227 239 250 240 268 262 168 252 231 186 309 289 229 215
230 220 194 202 227 230 232 253 243 251 246 208 228 223 238 245 262 242 254 250 255 227 192 164 159 240 289 291 231 217 221 230 255 287 248 250 259 133 255 272 308 288 278 272 241
288 267 194 215 239 249 247 250 245 231 248 256 256 254 253 249 248 253 256 266 229 248 232 177 196 230 244 235 191 236 259 241 231 252 259 249 265 277 264 263 272 272 237 233 243
234 253 320 242 237 242 247 265 258 281 281 294 263 241 247 253 248 253 250 259 249 240 189 183 230 220 235 241 243 250 254 255 249 238 236 261 251 264 270 269 273 274 259 254 253
293 326 352 304 319 297 259 258 274 283 264 272 269 284 284 284 268 261 259 245 238 222 221 192 242 231 231 226 233 244 245 251 253 254 247 245 257 254 268 275 272 263 261 263 254
333 59 2 266 308 255 257 287 287 315 283 318 341 326 310 300 302 296 290 285 294 295 253 217 208 218 247 232 242 244 238 239 245 246 244 242 243 257 265 261 260 273 281 261 255